| time (UTC) | temp C | wind direction | speed KPH | gust KPH | rain 1hr cm | rain 24hr cm | rain mn cm | humidity % | barometer mb |
| 20260904161551 | 20 | 130 | 11.3 | 22.5 | 0.00 | 0.00 | 0.00 | 20 | 878.4 |
| 20260904160048 | 19 | 164 | 12.9 | 22.5 | 0.00 | 0.00 | 0.00 | 23 | 878.1 |
| 20260904154543 | 18 | 169 | 9.7 | 22.5 | 0.00 | 0.00 | 0.00 | 20 | 878.0 |
| 20260904153059 | 18 | 119 | 12.9 | 24.1 | 0.00 | 0.00 | 0.00 | 15 | 877.9 |
| 20260904151544 | 17 | 123 | 12.9 | 20.9 | 0.00 | 0.00 | 0.00 | 14 | 877.7 |
| 20260904150041 | 17 | 130 | 11.3 | 20.9 | 0.00 | 0.00 | 0.00 | 14 | 877.6 |
| 20260904144530 | 17 | 103 | 11.3 | 22.5 | 0.00 | 0.00 | 0.00 | 14 | 877.5 |
| 20260904143026 | 16 | 98 | 12.9 | 20.9 | 0.00 | 0.00 | 0.00 | 15 | 877.4 |
| 20260904141522 | 15 | 95 | 12.9 | 20.9 | 0.00 | 0.00 | 0.00 | 15 | 877.2 |
| 20260904140031 | 15 | 140 | 11.3 | 17.7 | 0.00 | 0.00 | 0.00 | 15 | 877.0 |
| 20260904134519 | 13 | 114 | 8.0 | 17.7 | 0.00 | 0.00 | 0.00 | 15 | 877.1 |
| 20260904133019 | 13 | 46 | 4.8 | 16.1 | 0.00 | 0.00 | 0.00 | 16 | 877.0 |
| 20260904131536 | 13 | 103 | 8.0 | 20.9 | 0.00 | 0.00 | 0.00 | 17 | 876.7 |
| 20260904130016 | 13 | 110 | 9.7 | 19.3 | 0.00 | 0.00 | 0.00 | 18 | 876.6 |
| 20260904124516 | 13 | 98 | 11.3 | 24.1 | 0.00 | 0.00 | 0.00 | 20 | 876.5 |
| 20260904123014 | 13 | 111 | 11.3 | 20.9 | 0.00 | 0.00 | 0.00 | 20 | 876.4 |
| 20260904121513 | 13 | 80 | 8.0 | 19.3 | 0.00 | 0.00 | 0.00 | 22 | 876.5 |
| 20260904120019 | 13 | 117 | 8.0 | 22.5 | 0.00 | 0.00 | 0.00 | 22 | 876.5 |
| 20260904114511 | 13 | 65 | 11.3 | 20.9 | 0.00 | 0.00 | 0.00 | 23 | 876.5 |
| 20260904113030 | 13 | 92 | 6.4 | 17.7 | 0.00 | 0.00 | 0.00 | 26 | 876.5 |
| 20260904111509 | 13 | 85 | 8.0 | 17.7 | 0.00 | 0.00 | 0.00 | 28 | 876.7 |
| 20260904110008 | 13 | 109 | 4.8 | 12.9 | 0.00 | 0.00 | 0.00 | 32 | 876.6 |
| 20260904104507 | 13 | 76 | 4.8 | 14.5 | 0.00 | 0.00 | 0.00 | 38 | 876.5 |
| 20260904103004 | 13 | 69 | 3.2 | 16.1 | 0.00 | 0.00 | 0.00 | 39 | 876.5 |
| 20260904101502 | 13 | 111 | 6.4 | 14.5 | 0.00 | 0.00 | 0.00 | 39 | 876.5 |
| 20260904100110 | 14 | 68 | 4.8 | 14.5 | 0.00 | 0.00 | 0.00 | 39 | 876.5 |
| 20260904094609 | 14 | 95 | 8.0 | 14.5 | 0.00 | 0.00 | 0.00 | 40 | 876.5 |
| 20260904093103 | 14 | 107 | 6.4 | 14.5 | 0.00 | 0.00 | 0.00 | 39 | 876.4 |
| 20260904091611 | 14 | 102 | 6.4 | 16.1 | 0.00 | 0.00 | 0.00 | 36 | 876.6 |
| 20260904090057 | 14 | 130 | 6.4 | 12.9 | 0.00 | 0.00 | 0.00 | 36 | 876.6 |
| 20260904084553 | 15 | 60 | 1.6 | 8.0 | 0.00 | 0.00 | 0.00 | 36 | 876.8 |
| 20260904083050 | 15 | 66 | 1.6 | 8.0 | 0.00 | 0.00 | 0.00 | 34 | 877.0 |
| 20260904081550 | 15 | 63 | 1.6 | 9.7 | 0.00 | 0.00 | 0.00 | 35 | 877.0 |
| 20260904080046 | 15 | 96 | 3.2 | 12.9 | 0.00 | 0.00 | 0.00 | 32 | 877.2 |
| 20260904074548 | 14 | 78 | 3.2 | 11.3 | 0.00 | 0.00 | 0.00 | 28 | 877.3 |
| 20260904073048 | 14 | 78 | 3.2 | 8.0 | 0.00 | 0.00 | 0.00 | 28 | 877.3 |
| 20260904071540 | 14 | 85 | 4.8 | 8.0 | 0.00 | 0.00 | 0.00 | 30 | 877.3 |
| 20260904070037 | 15 | 103 | 3.2 | 8.0 | 0.00 | 0.00 | 0.00 | 31 | 877.3 |
| 20260904064533 | 15 | 75 | 3.2 | 12.9 | 0.00 | 0.00 | 0.00 | 36 | 877.3 |
| 20260904063028 | 15 | 107 | 0.0 | 12.9 | 0.00 | 0.00 | 0.00 | 39 | 877.2 |
| 20260904061523 | 15 | 136 | 0.0 | 0.0 | 0.00 | 0.00 | 0.00 | 40 | 877.3 |
| 20260904060020 | 15 | 83 | 1.6 | 8.0 | 0.00 | 0.00 | 0.00 | 39 | 877.3 |
| 20260904054533 | 16 | 105 | 6.4 | 12.9 | 0.00 | 0.00 | 0.00 | 38 | 877.4 |
| 20260904053015 | 15 | 13 | 0.0 | 6.4 | 0.00 | 0.00 | 0.00 | 40 | 877.3 |
| 20260904051512 | 14 | 98 | 0.0 | 3.2 | 0.00 | 0.00 | 0.00 | 43 | 877.5 |
| 20260904050003 | 14 | 98 | 0.0 | 4.8 | 0.00 | 0.00 | 0.00 | 44 | 877.5 |
| 20260904044558 | 13 | 98 | 0.0 | 0.0 | 0.00 | 0.00 | 0.00 | 45 | 877.6 |
| 20260904043057 | 13 | 98 | 0.0 | 0.0 | 0.00 | 0.00 | 0.00 | 45 | 877.5 |
| 20260904041548 | 14 | 98 | 0.0 | 0.0 | 0.00 | 0.00 | 0.00 | 45 | 877.6 |
| 20260904040044 | 15 | 98 | 0.0 | 0.0 | 0.00 | 0.00 | 0.00 | 48 | 877.5 |
| 20260904034540 | 13 | 87 | 1.6 | 4.8 | 0.00 | 0.00 | 0.00 | 48 | 877.3 |
| 20260904033035 | 13 | 312 | 0.0 | 1.6 | 0.00 | 0.00 | 0.00 | 69 | 877.3 |
| 20260904031531 | 13 | 312 | 0.0 | 0.0 | 0.00 | 0.00 | 0.00 | 72 | 877.1 |
| 20260904030026 | 13 | 80 | 0.0 | 3.2 | 0.00 | 0.00 | 0.00 | 73 | 877.1 |
| 20260904024533 | 14 | 114 | 4.8 | 12.9 | 0.00 | 0.00 | 0.00 | 77 | 877.0 |
| 20260904023017 | 14 | 108 | 8.0 | 14.5 | 0.00 | 0.00 | 0.00 | 75 | 876.9 |
| 20260904021518 | 15 | 120 | 8.0 | 16.1 | 0.00 | 0.00 | 0.00 | 73 | 877.0 |
| 20260904020009 | 16 | 150 | 8.0 | 20.9 | 0.00 | 0.00 | 0.00 | 69 | 876.9 |
| 20260904014505 | 16 | 113 | 9.7 | 17.7 | 0.00 | 0.00 | 0.00 | 67 | 877.0 |
| 20260904013121 | 17 | 161 | 12.9 | 22.5 | 0.00 | 0.00 | 0.00 | 64 | 877.0 |
| 20260904011556 | 17 | 148 | 14.5 | 24.1 | 0.00 | 0.00 | 0.00 | 61 | 877.0 |
| 20260904010105 | 18 | 107 | 16.1 | 27.4 | 0.00 | 0.00 | 0.00 | 59 | 877.1 |
| 20260904004547 | 19 | 114 | 14.5 | 27.4 | 0.00 | 0.00 | 0.00 | 56 | 877.1 |
| 20260904003044 | 20 | 172 | 16.1 | 29.0 | 0.00 | 0.00 | 0.00 | 53 | 877.0 |
| 20260904001539 | 20 | 122 | 14.5 | 27.4 | 0.00 | 0.00 | 0.00 | 53 | 877.1 |
| 20260904000033 | 20 | 115 | 16.1 | 27.4 | 0.00 | 0.00 | 0.00 | 52 | 877.1 |
| 20260903234539 | 21 | 150 | 12.9 | 29.0 | 0.00 | 0.00 | 0.00 | 52 | 877.1 |
| 20260903233031 | 21 | 154 | 19.3 | 30.6 | 0.00 | 0.00 | 0.00 | 51 | 877.3 |
| 20260903231519 | 21 | 175 | 17.7 | 29.0 | 0.00 | 0.00 | 0.00 | 51 | 877.4 |
| 20260903230018 | 21 | 145 | 12.9 | 30.6 | 0.00 | 0.00 | 0.00 | 51 | 877.5 |
| 20260903224512 | 22 | 144 | 16.1 | 35.4 | 0.00 | 0.00 | 0.00 | 49 | 877.7 |
| 20260903223006 | 22 | 94 | 19.3 | 33.8 | 0.00 | 0.00 | 0.00 | 47 | 877.9 |
| 20260903221502 | 22 | 158 | 17.7 | 29.0 | 0.00 | 0.00 | 0.00 | 47 | 878.0 |
| 20260903220058 | 22 | 111 | 17.7 | 32.2 | 0.00 | 0.00 | 0.00 | 43 | 877.9 |
| 20260903214554 | 23 | 116 | 12.9 | 22.5 | 0.00 | 0.00 | 0.00 | 33 | 878.1 |
| 20260903213051 | 23 | 140 | 17.7 | 29.0 | 0.00 | 0.00 | 0.00 | 29 | 878.2 |
| 20260903211602 | 23 | 126 | 14.5 | 29.0 | 0.00 | 0.00 | 0.00 | 28 | 878.3 |
| 20260903210041 | 23 | 123 | 16.1 | 29.0 | 0.00 | 0.00 | 0.00 | 27 | 878.3 |
| 20260903204537 | 23 | 121 | 17.7 | 37.0 | 0.00 | 0.00 | 0.00 | 27 | 878.3 |
| 20260903203033 | 23 | 147 | 17.7 | 32.2 | 0.00 | 0.00 | 0.00 | 25 | 878.2 |
| 20260903201528 | 23 | 156 | 12.9 | 33.8 | 0.00 | 0.00 | 0.00 | 25 | 878.5 |
| 20260903200024 | 23 | 163 | 16.1 | 30.6 | 0.00 | 0.00 | 0.00 | 23 | 878.6 |
| 20260903194520 | 22 | 166 | 16.1 | 32.2 | 0.00 | 0.00 | 0.00 | 22 | 878.6 |
| 20260903193015 | 22 | 146 | 16.1 | 40.2 | 0.00 | 0.00 | 0.00 | 22 | 878.7 |
| 20260903191519 | 22 | 154 | 16.1 | 25.7 | 0.00 | 0.00 | 0.00 | 21 | 878.9 |
| 20260903190111 | 22 | 150 | 12.9 | 27.4 | 0.00 | 0.00 | 0.00 | 22 | 879.0 |
| 20260903184502 | 22 | 130 | 17.7 | 29.0 | 0.00 | 0.00 | 0.00 | 21 | 879.1 |
| 20260903183102 | 21 | 73 | 16.1 | 27.4 | 0.00 | 0.00 | 0.00 | 21 | 879.4 |
| 20260903181552 | 21 | 107 | 14.5 | 27.4 | 0.00 | 0.00 | 0.00 | 21 | 879.4 |
| 20260903180050 | 21 | 136 | 16.1 | 25.7 | 0.00 | 0.00 | 0.00 | 22 | 879.4 |
| 20260903174545 | 21 | 155 | 16.1 | 25.7 | 0.00 | 0.00 | 0.00 | 23 | 879.4 |
| 20260903173041 | 20 | 159 | 9.7 | 24.1 | 0.00 | 0.00 | 0.00 | 22 | 879.4 |
| 20260903171538 | 20 | 133 | 11.3 | 20.9 | 0.00 | 0.00 | 0.00 | 23 | 879.3 |
| 20260903170033 | 20 | 176 | 9.7 | 20.9 | 0.00 | 0.00 | 0.00 | 24 | 879.3 |
| 20260903164527 | 20 | 165 | 14.5 | 20.9 | 0.00 | 0.00 | 0.00 | 26 | 879.1 |
| 20260903163023 | 19 | 149 | 12.9 | 22.5 | 0.00 | 0.00 | 0.00 | 27 | 879.1 |